Weather in Zhukovskoye

Russia / Rostov Oblast     46°05′16″N   41°21′28″E
temp.,
°C
wind,
m/s
gust,
m/s
humid.,
%
clouds,
%
prec.,
mm/h
press.,
hPa
HPBL,
m
7 may, fri
fri700:00+12se4870100 0.0 1013141
03:00+11sse337290 0.0 101332
06:00+11sw35905 0.2 1014126
09:00+16w5661100 0.6 1016497
12:00+19w67482 0.0 10161247
15:00+21w57520 0.0 10161628
18:00+19wnw47669 0.0 1016364
21:00+13wnw227821 0.0 101817
8 may, sat
sat800:00+12ssw11825 0.0 101810
03:00+11ese22840 0.0 101710
06:00+12se248825 0.0 101678
09:00+19se356422 0.0 1016555
12:00+22se4554100 0.0 10141325
15:00+24sse4550100 0.0 10131561
18:00+21se2469100 0.1 101180
21:00+17se337988 0.1 101139
9 may, sun
sun900:00+15se338130 0.3 100928
03:00+14se3383100 0.5 100925
06:00+14nnw4889100 0.0 1008253
09:00+16nnw3383100 0.8 1009469
12:00+14sw61088100 2.0 1009781
15:00+10wnw91287100 2.1 1012788
18:00+7wnw81188100 0.1 10171046
21:00+7w61091100 0.4 10191161
10 may, mon
mon1000:00+7wnw91288100 0.4 10201071
03:00+7wnw91385100 0.7 10191120
06:00+7w81288100 0.6 10201194
09:00+6w71191100 1.3 10191041
12:00+6w71191100 0.2 1019880
15:00+7w61188100 0.3 1019920
18:00+7wsw61086100 0.1 10181008
21:00+7wsw91497100 15.7 1015634
11 may, tue
tue1100:00+7sw5988100 0.1 10191071
03:00+7sw61186100 0.4 10191069
06:00+6s4888100 0.0 1020356
09:00+11sse4669100 0.1 1021751
12:00+14ese566199 0.5 10211534
15:00+13ese786681 1.3 10211134
18:00+13ese4873100 0.0 1021634
21:00+11ene3875100 0.0 1020193